| time (UTC) | temp F | wind direction | speed knots | gust knots | rain 1hr in | rain 24hr in | rain mn in | humidity % | barometer mb |
| 20260506111544 | 61 | 0 | 0.0 | 0.0 | 0.00 | 0.00 | 0.00 | 89 | 1015.7 |
| 20260506110041 | 61 | 0 | 0.0 | 0.0 | 0.00 | 0.00 | 0.00 | 89 | 1015.4 |
| 20260506104547 | 61 | 0 | 0.0 | 0.0 | 0.00 | 0.00 | 0.00 | 88 | 1015.2 |
| 20260506103040 | 61 | 0 | 0.0 | 0.0 | 0.00 | 0.00 | 0.00 | 88 | 1015.0 |
| 20260506101538 | 61 | 0 | 0.0 | 0.0 | 0.00 | 0.00 | 0.00 | 87 | 1014.6 |
| 20260506100039 | 61 | 0 | 0.0 | 0.0 | 0.00 | 0.00 | 0.00 | 87 | 1014.3 |
| 20260506094554 | 61 | 0 | 0.0 | 0.0 | 0.00 | 0.00 | 0.00 | 86 | 1014.4 |
| 20260506093041 | 61 | 0 | 0.0 | 0.0 | 0.00 | 0.00 | 0.00 | 85 | 1014.4 |
| 20260506091539 | 61 | 0 | 0.0 | 0.0 | 0.00 | 0.00 | 0.00 | 85 | 1014.5 |
| 20260506090038 | 61 | 0 | 0.0 | 0.0 | 0.00 | 0.00 | 0.00 | 84 | 1014.3 |
| 20260506084542 | 61 | 0 | 0.0 | 0.0 | 0.00 | 0.00 | 0.00 | 84 | 1014.1 |
| 20260506083046 | 62 | 0 | 0.0 | 0.0 | 0.00 | 0.00 | 0.00 | 83 | 1014.6 |
| 20260506081544 | 62 | 0 | 0.0 | 0.0 | 0.00 | 0.00 | 0.00 | 82 | 1014.7 |
| 20260506073040 | 63 | 0 | 0.0 | 0.0 | 0.00 | 0.00 | 0.00 | 78 | 1014.9 |
| 20260506071542 | 63 | 0 | 0.0 | 0.0 | 0.00 | 0.00 | 0.00 | 77 | 1015.0 |
| 20260506061539 | 64 | 0 | 0.0 | 0.0 | 0.00 | 0.00 | 0.00 | 72 | 1015.0 |
| 20260506044547 | 65 | 0 | 0.0 | 0.9 | 0.00 | 0.00 | 0.00 | 69 | 1014.9 |
| 20260506043042 | 65 | 0 | 0.0 | 0.9 | 0.00 | 0.00 | 0.00 | 68 | 1014.9 |
| 20260506041539 | 65 | 0 | 0.0 | 0.0 | 0.00 | 0.00 | 0.00 | 68 | 1015.1 |
| 20260506040041 | 66 | 0 | 0.0 | 0.0 | 0.00 | 0.00 | 0.00 | 68 | 1015.1 |
| 20260506034538 | 66 | 0 | 0.0 | 0.9 | 0.00 | 0.00 | 0.00 | 66 | 1015.4 |
| 20260506033046 | 67 | 0 | 0.0 | 0.0 | 0.00 | 0.00 | 0.00 | 65 | 1015.3 |
| 20260506031546 | 67 | 0 | 0.0 | 0.0 | 0.00 | 0.00 | 0.00 | 63 | 1015.1 |
| 20260506030040 | 67 | 0 | 0.0 | 0.9 | 0.00 | 0.00 | 0.00 | 62 | 1014.9 |
| 20260506024556 | 67 | 0 | 0.0 | 0.9 | 0.00 | 0.00 | 0.00 | 62 | 1015.0 |
| 20260506023045 | 68 | 0 | 0.0 | 0.0 | 0.00 | 0.00 | 0.00 | 61 | 1015.3 |
| 20260506021541 | 68 | 0 | 0.0 | 0.0 | 0.00 | 0.00 | 0.00 | 59 | 1015.4 |
| 20260506020040 | 69 | 0 | 0.0 | 0.0 | 0.00 | 0.00 | 0.00 | 58 | 1015.3 |
| 20260506014541 | 70 | 0 | 0.0 | 0.0 | 0.00 | 0.00 | 0.00 | 57 | 1015.1 |
| 20260506013046 | 71 | 0 | 0.0 | 0.0 | 0.00 | 0.00 | 0.00 | 54 | 1015.2 |
| 20260506011543 | 72 | 0 | 0.0 | 0.0 | 0.00 | 0.00 | 0.00 | 54 | 1014.8 |
| 20260506010041 | 73 | 0 | 0.0 | 0.9 | 0.00 | 0.00 | 0.00 | 51 | 1014.8 |
| 20260506004540 | 74 | 0 | 0.0 | 0.0 | 0.00 | 0.00 | 0.00 | 50 | 1014.8 |
| 20260506003040 | 75 | 0 | 0.0 | 0.9 | 0.00 | 0.00 | 0.00 | 47 | 1015.0 |
| 20260506001546 | 77 | 0 | 0.0 | 0.9 | 0.00 | 0.00 | 0.00 | 45 | 1014.7 |
| 20260506000044 | 78 | 63 | 0.0 | 3.5 | 0.00 | 0.00 | 0.00 | 39 | 1014.9 |
| 20260505234546 | 79 | 0 | 0.0 | 2.6 | 0.00 | 0.00 | 0.00 | 38 | 1014.7 |
| 20260505233038 | 80 | 94 | 0.0 | 4.3 | 0.00 | 0.00 | 0.00 | 37 | 1014.6 |
| 20260505231557 | 80 | 0 | 0.9 | 7.0 | 0.00 | 0.00 | 0.00 | 35 | 1014.5 |
| 20260505230055 | 81 | 49 | 1.7 | 7.0 | 0.00 | 0.00 | 0.00 | 34 | 1014.5 |
| 20260505224540 | 82 | 38 | 0.9 | 6.1 | 0.00 | 0.00 | 0.00 | 34 | 1014.3 |
| 20260505223048 | 83 | 98 | 1.7 | 7.0 | 0.00 | 0.00 | 0.00 | 33 | 1014.4 |
| 20260505221548 | 84 | 0 | 0.0 | 5.2 | 0.00 | 0.00 | 0.00 | 33 | 1014.3 |
| 20260505220044 | 85 | 0 | 0.0 | 5.2 | 0.00 | 0.00 | 0.00 | 32 | 1014.4 |
| 20260505214540 | 85 | 0 | 0.9 | 7.8 | 0.00 | 0.00 | 0.00 | 31 | 1014.5 |
| 20260505213050 | 84 | 0 | 0.9 | 6.1 | 0.00 | 0.00 | 0.00 | 33 | 1014.6 |
| 20260505211547 | 84 | 342 | 2.6 | 10.4 | 0.00 | 0.00 | 0.00 | 32 | 1014.6 |
| 20260505210046 | 85 | 91 | 0.9 | 5.2 | 0.00 | 0.00 | 0.00 | 32 | 1014.4 |
| 20260505204543 | 85 | 112 | 0.0 | 7.0 | 0.00 | 0.00 | 0.00 | 32 | 1014.9 |
| 20260505203041 | 85 | 291 | 0.0 | 5.2 | 0.00 | 0.00 | 0.00 | 33 | 1014.9 |
| 20260505201546 | 84 | 0 | 1.7 | 8.7 | 0.00 | 0.00 | 0.00 | 34 | 1015.0 |
| 20260505200040 | 83 | 352 | 1.7 | 6.1 | 0.00 | 0.00 | 0.00 | 35 | 1015.1 |
| 20260505194540 | 83 | 0 | 1.7 | 8.7 | 0.00 | 0.00 | 0.00 | 32 | 1015.2 |
| 20260505193038 | 84 | 5 | 1.7 | 7.0 | 0.00 | 0.00 | 0.00 | 34 | 1015.4 |
| 20260505191541 | 83 | 130 | 1.7 | 6.1 | 0.00 | 0.00 | 0.00 | 34 | 1015.6 |
| 20260505190045 | 83 | 352 | 1.7 | 8.7 | 0.00 | 0.00 | 0.00 | 34 | 1015.7 |
| 20260505184556 | 83 | 0 | 0.0 | 6.1 | 0.00 | 0.00 | 0.00 | 37 | 1015.9 |
| 20260505183049 | 81 | 29 | 0.9 | 7.0 | 0.00 | 0.00 | 0.00 | 38 | 1016.0 |
| 20260505181538 | 80 | 94 | 2.6 | 11.3 | 0.00 | 0.00 | 0.00 | 40 | 1016.5 |
| 20260505180046 | 80 | 74 | 1.7 | 7.8 | 0.00 | 0.00 | 0.00 | 43 | 1016.7 |
| 20260505174554 | 79 | 0 | 0.9 | 4.3 | 0.00 | 0.00 | 0.00 | 43 | 1016.7 |
| 20260505173044 | 77 | 32 | 0.0 | 9.6 | 0.00 | 0.00 | 0.00 | 43 | 1017.0 |
| 20260505171548 | 77 | 60 | 2.6 | 7.0 | 0.00 | 0.00 | 0.00 | 44 | 1017.2 |
| 20260505170046 | 76 | 59 | 1.7 | 6.1 | 0.00 | 0.00 | 0.00 | 47 | 1017.2 |
| 20260505164543 | 75 | 99 | 0.9 | 8.7 | 0.00 | 0.00 | 0.00 | 49 | 1017.3 |
| 20260505163042 | 73 | 74 | 0.9 | 7.8 | 0.00 | 0.00 | 0.00 | 53 | 1017.2 |
| 20260505161539 | 72 | 0 | 1.7 | 7.0 | 0.00 | 0.00 | 0.00 | 54 | 1017.4 |
| 20260505153045 | 69 | 0 | 0.9 | 7.0 | 0.00 | 0.00 | 0.00 | 59 | 1018.2 |
| 20260505151541 | 67 | 0 | 0.0 | 3.5 | 0.00 | 0.00 | 0.00 | 63 | 1018.3 |
| 20260505124557 | 55 | 17 | 0.9 | 4.3 | 0.00 | 0.00 | 0.00 | 81 | 1017.2 |
| 20260505123059 | 54 | 318 | 0.9 | 2.6 | 0.00 | 0.00 | 0.00 | 81 | 1016.7 |
| 20260505121539 | 53 | 0 | 0.0 | 1.7 | 0.00 | 0.00 | 0.00 | 81 | 1016.7 |
| 20260505120051 | 53 | 0 | 0.0 | 1.7 | 0.00 | 0.00 | 0.00 | 82 | 1016.6 |
| 20260505114546 | 52 | 0 | 0.0 | 2.6 | 0.00 | 0.00 | 0.00 | 83 | 1016.5 |
| 20260505113049 | 52 | 0 | 0.0 | 2.6 | 0.00 | 0.00 | 0.00 | 86 | 1016.1 |